Location: Lynch Observatory
(39.9540°N, 75.1861°W)
Time: 13:49:30
(UTC-04:00)

Tiangong 2 - Visible Passes

Search period start: 21 October 2017 00:00
Search period end: 31 October 2017 00:00
Orbit: 388 x 391 km, 42.8° (Epoch: 21 October)

Date Brightness Start Highest point End Pass type
(mag) Time Alt. Az. Time Alt. Az. Time Alt. Az.
21 Oct 3.1 06:15:34 15° SW 06:16:11 15° SW 06:18:09 10° S visible
22 Oct 3.9 05:20:51 12° SSE 05:20:51 12° SSE 05:21:12 10° SSE visible
28 Oct 3.6 19:18:35 10° SSE 19:19:15 11° SSE 19:19:15 11° SSE visible
29 Oct 3.2 19:55:17 10° SW 19:56:40 21° SSW 19:56:40 21° SSW visible
30 Oct 2.7 18:57:54 10° SSW 19:00:25 21° SSE 19:01:39 17° ESE visible
30 Oct 4.6 20:33:50 10° WSW 20:33:59 11° WSW 20:33:59 11° WSW visible
